Regional Weather Roundup
Issued by NWS

Home | Current Version | Previous Version | Graphics & Text | Print | Product List | Glossary On
Versions: 1 2 3 4 5 6 7 8 9 10 11 12 13 14 15 16 17 18 19 20 21 22 23 24 25 26 27 28 29 30 31 32 33 34 35 36 37 38 39 40 41 42 43 44 45 46 47 48 49 50
000
ASUS43 KBIS 242310
RWRND

NORTH DAKOTA REGIONAL WEATHER ROUNDUP
NATIONAL WEATHER SERVICE BISMARCK ND
600 PM CDT TUE APR 24 2018

NOTE: "FAIR" INDICATES FEW OR NO CLOUDS BELOW 12,000 FEET WITH NO
SIGNIFICANT WEATHER AND/OR OBSTRUCTIONS TO VISIBILITY.


NDZ001>003-009>011-017-250000-
NORTHWEST NORTH DAKOTA

CITY           SKY/WX    TMP DP  RH WIND       PRES   REMARKS
WILLISTON      SUNNY     62  21  20 W9        30.34F
MINOT          SUNNY     60  17  18 VRB5      30.33F
MINOT AFB      SUNNY     60  19  20 W7        30.32F
$$

NDZ018>021-031>035-040>046-250000-
SOUTHWEST NORTH DAKOTA

CITY           SKY/WX    TMP DP  RH WIND       PRES   REMARKS
BISMARCK       SUNNY     58  24  27 NW7G21    30.37F
DICKINSON      SUNNY     57  21  24 N6        30.36F
GARRISON         N/A     58  21  24 NW13      30.35F
HETTINGER ARPT SUNNY     51  24  34 NW7       30.41F
$$

NDZ004>008-012>016-024-026-027-054-250000-
NORTHEAST NORTH DAKOTA

CITY           SKY/WX    TMP DP  RH WIND       PRES   REMARKS
GRAND FORKS    FAIR      52  28  39 N17G24    30.34F
GRND FRKS AFB  FAIR      53  25  33 N14       30.34F
DEVILS LAKE    FAIR      54  27  35 N12G21    30.36F
$$

NDZ022-023-025-028>030-036>039-047>053-250000-
SOUTHEAST NORTH DAKOTA

CITY           SKY/WX    TMP DP  RH WIND       PRES   REMARKS
FARGO          FAIR      53  28  38 N22G31    30.33S
JAMESTOWN      SUNNY     55  27  34 N17       30.34S
$$





USA.gov is the U.S. government's official web portal to all federal, state and local government web resources and services.